Location: Cactus School
(34.5700°N, 118.0931°W)
Time: 00:55:05
(UTC-08:00)

N. Korean satellite - Pass Details

Date: 16 November 2017
Orbit: 460 x 514 km, 97.2° (Epoch: 21 November)

Event Time Altitude Azimuth Distance (km) Brightness Sun altitude
Rises 05:59:51 0° 25° (NNE) 2,605 10.4 -6.1°
Reaches altitude 10° 06:02:10 10° 37° (NE) 1,724 9.6 -5.7°
Maximum altitude 06:05:22 27° 97° (E) 1,006 9.3 -5.1°
Drops below altitude 10° 06:08:34 10° 156° (SSE) 1,728 10.1 -4.4°
Sets 06:10:53 0° 169° (SSE) 2,612 10.8 -4.0°
